Theta_e
324 324 325 325 326 326 327 327 327 327 326 326 325 324 323 323 323 323 323 323 323 323 323 322 322 323 322 321 321 320 319 317 314 314 310 309 307 303 300 295 294 294 294
323 324 324 324 325 325 326 326 326 326 326 325 324 324 323 323 323 323 323 323 324 324 324 324 323 322 322 321 319 318 317 315 312 310 307 305 304 300 297 294 293 293 294
323 323 323 323 324 325 325 325 325 325 325 324 323 322 322 323 323 323 323 324 324 324 323 322 320 318 317 316 314 313 312 310 308 306 304 301 297 296 293 291 291 290 293
323 323 322 323 323 324 324 324 324 323 322 322 322 322 322 322 323 323 322 323 322 319 318 316 315 314 311 310 309 309 308 306 305 302 300 297 294 293 291 290 288 289 290
322 323 323 323 322 322 321 321 322 322 322 322 322 322 321 321 320 319 319 318 317 315 314 313 311 309 307 306 306 306 305 303 301 299 296 294 292 290 289 290 289 290 290
318 320 322 322 322 322 322 322 321 320 319 318 317 316 315 314 314 314 314 313 312 311 309 307 304 303 303 304 304 304 303 301 300 298 295 293 293 292 292 290 289 288 288
311 314 315 315 316 315 313 310 309 308 307 307 308 309 309 308 308 308 307 306 304 303 302 304 304 304 304 304 302 303 301 300 298 298 295 294 294 295 293 290 289 289 290
304 304 305 305 305 306 306 306 306 306 306 306 305 304 303 301 301 301 301 302 303 303 302 301 301 299 299 298 298 297 297 296 296 295 295 294 293 292 292 293 292 289 289
304 305 305 306 306 305 305 305 304 304 303 301 300 299 300 301 300 301 301 302 301 298 297 296 296 295 294 293 294 294 292 293 293 293 292 292 291 291 290 290 290 288 287
304 305 305 305 305 304 304 303 303 302 300 299 299 299 299 299 299 299 300 299 297 296 295 294 293 293 292 292 291 291 290 292 292 292 291 291 291 291 291 291 290 288 287
303 303 303 303 303 303 303 302 300 298 298 298 298 297 297 297 297 296 297 296 296 294 293 292 292 291 291 291 290 291 290 291 291 291 290 290 290 290 290 289 288 287 286
301 301 301 301 301 301 300 298 296 296 296 296 295 294 294 295 295 294 294 294 293 293 292 291 290 290 290 290 290 291 290 290 290 290 290 289 289 289 289 289 288 288 287
299 298 298 298 298 298 297 295 296 295 295 294 292 291 291 291 292 291 291 291 291 291 291 290 289 289 288 288 288 289 289 289 289 288 288 288 288 288 287 286 286 285 285
294 293 293 294 293 294 294 294 294 293 293 293 292 291 290 290 290 290 290 290 290 288 288 289 289 288 288 287 287 287 287 287 287 287 286 286 286 285 285 284 284 285 284
292 291 291 291 292 292 293 293 293 292 292 291 290 289 288 288 288 288 289 289 287 287 288 288 288 288 288 287 287 287 287 286 286 286 286 286 285 285 285 285 285 284 283
289 289 289 289 289 290 290 289 290 290 289 289 289 290 288 288 288 288 288 288 288 287 287 287 287 287 287 286 286 286 286 285 285 285 284 285 285 284 285 284 284 283 283
288 287 286 287 287 287 287 287 287 287 287 286 286 287 287 287 287 288 288 288 288 287 286 286 285 284 284 285 284 284 284 284 283 282 282 283 283 283 284 284 284 283 283
287 286 285 285 285 286 286 286 286 284 282 283 284 285 285 284 286 287 287 287 286 285 284 282 281 281 280 281 281 280 280 281 282 282 283 283 283 283 283 283 283 283 284
286 285 285 285 285 284 284 283 282 281 280 281 282 282 281 282 284 285 285 285 283 282 282 281 280 280 279 279 279 278 278 278 278 278 279 279 279 279 279 281 282 283 283
285 285 285 285 283 283 282 281 280 281 281 280 280 281 281 281 281 281 281 281 280 279 278 278 277 276 276 276 275 275 275 275 275 274 274 274 274 274 274 274 275 277 278
284 284 285 284 283 282 282 282 282 281 280 279 279 278 279 280 279 278 277 277 276 276 275 274 274 273 273 273 272 272 272 272 271 271 271 271 271 271 271 271 271 273 274
283 283 282 281 280 281 281 281 279 279 278 277 277 275 277 277 276 276 275 274 274 273 273 273 273 272 272 272 271 271 271 270 270 270 270 269 269 269 269 268 269 269 270
281 280 279 278 278 278 278 278 278 277 276 276 275 274 274 273 273 273 272 272 271 271 271 271 271 270 270 270 269 269 269 269 269 268 268 268 268 268 267 267 267 267 268
277 276 276 275 275 275 275 275 275 274 274 274 274 273 272 273 272 271 271 270 270 270 270 270 270 269 269 269 268 268 268 268 268 268 268 268 267 267 267 267 267 267 267
273 273 273 273 273 273 272 272 272 273 272 271 271 272 271 270 270 270 270 270 269 269 268 268 268 268 268 268 268 268 268 268 268 267 267 267 267 266 266 266 267 267 267
272 272 272 272 272 272 272 271 271 270 270 271 271 270 270 270 269 269 269 268 268 268 268 268 268 268 268 268 267 267 268 268 268 267 266 266 266 266 266 266 266 266 266
Wind_Speed
38 37 37 38 40 38 39 40 39 36 33 31 29 27 26 24 24 25 27 27 28 29 30 32 33 32 31 30 29 29 29 25 15 15 17 17 17 23 27 29 34 38 33
39 37 38 37 37 37 38 38 36 34 31 29 27 26 25 25 24 25 25 26 26 28 29 28 28 27 26 26 23 22 22 23 21 17 13 15 17 19 23 25 28 35 35
36 36 36 36 36 36 36 35 32 28 27 26 25 25 25 24 24 24 24 23 23 22 22 22 15 14 15 15 16 19 19 18 19 20 15 15 14 17 19 21 25 30 35
31 33 34 34 34 34 32 29 26 25 24 24 22 21 21 21 21 21 21 20 19 16 13 10 11 14 14 13 14 15 16 16 16 17 15 13 12 13 18 20 21 28 32
27 28 31 29 27 26 25 23 22 22 22 21 20 19 18 17 17 15 14 14 15 15 14 13 13 14 11 12 13 14 13 13 14 14 14 11 13 12 17 19 20 24 29
28 28 25 24 23 23 22 22 22 22 21 20 20 19 18 17 19 18 18 16 14 14 15 16 12 9 11 10 11 13 15 15 17 18 17 13 17 18 17 19 17 12 6
23 23 23 23 23 23 22 22 21 21 19 17 16 15 15 14 14 14 15 14 11 10 9 7 9 11 11 11 11 12 12 13 17 16 18 20 20 20 20 21 22 19 16
23 23 23 23 23 22 22 21 19 19 18 18 16 15 14 12 8 5 5 5 7 7 7 8 9 8 9 10 10 10 9 9 10 14 15 15 16 16 18 21 22 21 19
26 26 26 26 26 25 24 23 21 21 20 19 16 15 12 10 8 8 6 6 5 4 2 2 5 7 6 6 7 7 5 5 5 7 9 8 8 7 10 14 14 11 4
30 29 27 26 26 26 25 25 23 22 19 16 14 12 11 11 9 7 6 6 7 6 3 2 3 5 6 4 4 4 6 4 4 6 8 10 11 12 14 17 17 13 9
26 26 25 24 24 23 24 23 23 21 20 19 16 14 12 9 8 6 5 5 5 6 5 5 4 4 2 2 1 1 2 2 2 6 8 9 10 11 11 13 14 17 13
29 27 25 23 23 23 23 22 22 23 22 20 19 16 13 11 9 7 6 5 7 6 6 4 4 3 3 2 2 3 4 4 3 6 7 8 10 11 13 14 17 18 18
31 28 26 25 24 24 25 25 25 24 24 23 22 19 15 12 11 9 8 8 8 8 7 5 4 5 6 5 1 2 3 5 5 5 8 9 10 12 13 14 14 15 16
30 27 26 26 25 25 25 27 26 25 24 24 22 19 16 14 12 11 11 11 11 12 11 8 7 7 6 5 7 5 4 4 6 8 10 11 12 13 14 13 15 16 14
27 27 26 25 27 26 24 24 25 24 26 25 21 21 20 15 13 10 9 10 12 12 13 11 9 8 7 5 6 7 7 7 5 6 9 11 13 13 14 14 14 14 13
24 24 25 27 27 27 26 21 16 17 16 15 16 19 18 15 13 12 11 11 12 11 9 8 7 5 4 3 4 4 5 5 6 9 10 11 12 12 13 15 17 16 15
20 23 25 25 25 25 24 24 24 18 16 16 16 17 16 16 13 12 13 12 10 11 12 8 8 5 3 3 4 4 5 6 9 9 9 10 11 13 14 13 15 15 16
20 23 24 24 25 24 22 21 23 23 21 21 17 16 14 13 16 17 16 15 14 11 10 8 7 5 3 2 2 3 4 4 4 6 8 11 13 14 16 15 15 16 17
22 23 24 27 27 27 25 24 23 21 20 23 21 19 15 15 15 16 16 12 13 11 9 8 6 4 3 2 4 5 6 7 8 9 9 10 12 13 14 14 15 17 19
22 24 24 28 28 27 25 24 23 24 24 22 21 19 16 14 13 13 12 11 10 9 7 6 4 3 3 4 6 7 8 8 8 8 9 10 12 13 13 15 17 17 18
20 20 20 23 25 27 27 28 27 26 26 23 18 15 16 17 15 12 10 9 7 6 6 5 4 3 4 5 5 6 7 7 8 9 10 11 12 14 15 16 16 15 16
16 17 17 19 20 22 22 23 24 25 25 23 19 15 14 12 11 10 9 7 6 6 6 5 4 4 4 5 7 7 7 8 8 9 10 11 13 14 14 14 15 15 16
12 14 16 18 18 19 19 20 21 21 21 18 16 12 9 10 8 8 8 7 7 7 6 5 4 4 5 5 6 7 8 8 9 10 11 12 12 12 13 14 15 14 14
11 13 14 14 14 15 16 15 14 13 13 12 11 11 9 9 9 8 8 8 7 7 7 6 5 6 6 6 6 7 8 8 8 8 9 10 12 12 13 14 15 16 17
9 9 10 10 10 10 11 10 9 9 9 10 9 9 10 10 9 9 10 9 9 8 7 7 7 7 7 8 8 8 8 8 7 7 8 11 13 13 14 16 16 16 15
4 3 3 4 6 7 7 8 8 10 9 8 9 10 11 11 11 11 10 10 9 9 9 10 10 10 10 10 10 10 9 9 9 7 9 12 14 14 14 15 15 15 14
Wind_Direction
213 212 213 215 221 221 225 232 238 243 246 249 249 250 252 253 255 254 255 258 258 262 264 260 261 271 266 267 264 267 262 255 260 281 282 280 268 261 258 247 238 232 225
221 218 219 220 222 223 230 236 240 243 247 249 249 250 251 253 256 256 257 259 259 262 267 266 266 274 273 274 271 274 275 277 266 271 282 274 270 261 255 247 238 236 229
220 221 220 221 225 228 232 235 239 242 246 246 246 246 249 252 255 257 259 264 266 260 262 259 264 275 279 280 286 289 290 287 282 268 272 274 270 259 244 242 239 235 227
218 218 220 223 226 229 231 234 237 238 238 238 240 244 247 249 249 250 250 247 257 253 258 256 265 273 280 289 290 289 289 290 290 279 272 262 262 261 237 224 220 225 229
211 213 218 221 222 224 224 225 225 225 227 227 224 223 224 227 230 232 235 238 242 253 252 265 270 273 274 275 273 273 270 272 269 256 250 238 235 221 217 225 222 227 226
203 207 209 208 208 209 212 212 212 213 215 217 221 221 225 232 236 240 238 238 244 250 260 268 266 273 278 279 285 282 272 253 247 237 235 228 244 244 242 229 209 203 240
193 194 195 195 196 197 198 198 198 196 194 191 191 192 196 203 215 224 235 237 244 243 236 258 263 256 258 258 254 256 252 243 249 255 246 246 245 251 237 218 206 210 218
188 187 186 185 183 183 183 184 181 182 181 180 179 174 176 183 186 187 207 224 237 233 245 257 268 275 280 279 278 275 267 254 248 251 256 269 276 277 252 240 234 230 244
187 186 185 184 181 181 180 178 176 174 170 171 169 169 173 171 187 201 218 213 212 213 226 282 304 306 311 312 299 296 302 296 259 248 257 250 241 236 209 213 224 222 265
195 191 187 186 186 183 182 178 177 175 170 166 163 173 177 179 184 196 203 185 181 165 154 113 42 0 333 347 326 311 299 311 273 248 253 254 257 254 254 254 253 220 218
195 186 184 186 187 186 182 179 172 167 162 163 168 168 172 175 179 187 181 176 168 155 146 120 104 84 26 29 5 253 262 308 280 244 248 260 262 265 257 259 255 250 225
186 179 177 179 181 183 181 173 171 167 165 165 164 156 163 162 165 152 148 141 156 157 131 97 83 63 60 91 222 223 238 260 250 232 247 256 262 265 270 271 275 277 270
176 176 176 176 178 180 176 170 166 170 168 167 165 159 148 148 142 145 148 153 151 159 151 136 100 49 45 42 38 244 265 294 300 297 294 297 299 304 300 295 292 290 289
169 172 175 174 171 174 176 175 170 171 175 173 170 163 154 150 158 164 164 158 146 137 138 130 96 70 50 18 30 19 27 344 310 302 303 308 305 303 299 295 291 294 280
163 164 165 165 161 164 169 175 176 178 179 174 174 167 158 156 165 162 169 152 138 126 119 115 110 104 90 68 45 31 20 15 349 326 311 306 303 302 296 303 301 292 260
154 159 160 158 158 158 156 151 167 162 161 161 149 150 142 145 145 151 149 140 133 131 121 115 109 104 100 76 57 38 19 359 336 330 311 302 296 290 289 295 299 276 268
161 161 159 155 154 152 152 148 136 129 133 133 135 135 137 140 141 141 135 131 137 148 133 131 124 109 91 65 22 352 326 344 336 332 317 308 307 304 307 300 286 279 278
169 166 160 158 157 156 155 151 148 147 139 126 125 126 124 120 140 141 148 151 140 148 144 142 149 156 153 164 242 286 323 332 337 321 320 311 310 306 302 298 299 290 285
169 159 159 167 166 167 160 159 159 155 147 143 140 139 130 127 136 153 168 177 154 151 154 161 170 186 210 253 284 299 309 317 321 324 324 322 322 327 327 332 316 300 293
156 161 160 161 163 163 164 163 163 159 153 151 156 161 159 150 152 154 151 155 159 164 176 190 205 228 260 282 294 301 307 311 315 321 323 320 316 317 320 320 316 313 309
154 161 170 171 172 173 174 175 171 163 159 157 152 153 162 165 159 156 157 167 182 192 200 210 228 261 290 295 295 301 311 317 320 325 325 323 327 327 326 321 318 314 313
148 153 164 166 166 169 170 169 165 161 158 155 147 145 154 161 166 170 183 194 207 221 228 232 243 259 274 288 300 306 311 317 323 323 323 327 333 333 332 327 324 320 317
151 153 156 158 157 152 151 156 156 159 161 164 169 172 176 184 185 194 201 210 218 227 239 245 256 266 278 283 288 296 309 320 326 327 327 330 331 332 333 330 330 325 315
133 140 142 141 141 144 146 148 153 159 165 173 186 200 203 211 213 215 217 218 223 230 240 249 255 261 266 275 284 295 303 308 311 318 317 322 322 322 320 319 320 320 320
100 114 128 136 144 150 155 160 167 176 190 200 209 222 226 225 228 228 226 229 231 233 242 252 257 266 269 272 277 282 288 295 301 303 303 307 313 317 315 313 311 310 310
72 109 147 165 175 183 190 192 198 204 213 227 238 240 242 241 240 240 240 241 241 244 244 247 255 260 266 271 277 284 292 296 296 296 298 298 297 298 304 311 312 305 303